Location: Unspecified
(0.0000°N, 0.0000°E)
Time: 18:38:57
(UTC+00:00)

SRMSAT - Pass Details

Date: 02 June 2020
Orbit: 848 x 866 km, 20.0° (Epoch: 06 July)

Event Time Altitude Azimuth Distance (km) Brightness Sun altitude
Rises 19:01:31 0° 316° (NW) 3,386 ? -14.6°
Reaches altitude 10° 19:07:07 10° 358° (N) 2,452 ? -15.9°
Maximum altitude 19:07:48 10° 5° (N) 2,439 ? -16.1°
Drops below altitude 10° 19:08:28 10° 12° (NNE) 2,453 ? -16.2°
Enters shadow 19:13:34 - 52° (NE) 3,264 ? -17.4°
